Stations météo

réclame
Mon MeteoGroup
Almeria, Espagne (8487): Température de l'air & dewpoint: 11.01.2020 23:00:00 - 17.01.2020 23:00:00 (CET)Almeria, Espagne (8487): Vitesse du vent: 11.01.2020 23:00:00 - 17.01.2020 23:00:00 (CET)Almeria, Espagne (8487): Direction du vent: 11.01.2020 23:00:00 - 17.01.2020 23:00:00 (CET)Almeria, Espagne (8487): reduced air pressure: 11.01.2020 23:00:00 - 17.01.2020 23:00:00 (CET)Almeria, Espagne (8487): visibility: 11.01.2020 23:00:00 - 17.01.2020 23:00:00 (CET)
Date & Time tt [°C] td [°C] ff [km/h] ff [knt] dd ppp [hPa] vv [km]
17.01.2020 23:00:00 11,7 6,4 8 4 N 1031,7 -
17.01.2020 22:00:00 11,9 7,2 5 3 S 1031,5 35
17.01.2020 21:00:00 11,2 7,5 8 4 N 1031,2 -
17.01.2020 20:00:00 11,5 7,4 9 5 N 1031,2 -
17.01.2020 19:00:00 12,4 8,9 8 4 N 1030,5 35
17.01.2020 18:00:00 14,9 9,7 2 1 SE 1030,0 -
17.01.2020 17:00:00 16,4 11,1 9 5 S 1029,6 -
17.01.2020 16:00:00 17,0 11,9 8 4 SSE 1029,6 40
17.01.2020 15:00:00 17,6 11,6 5 3 SSE 1029,7 -
17.01.2020 14:00:00 17,8 11,9 5 3 S 1030,3 -
17.01.2020 13:00:00 17,9 12,8 4 2 SSW 1031,0 40
17.01.2020 12:00:00 17,1 11,2 4 2 SSW 1032,0 -
17.01.2020 11:00:00 15,2 6,9 0 0 N 1031,8 -
17.01.2020 10:00:00 12,6 5,4 2 1 NE 1031,1 40
17.01.2020 09:00:00 9,6 4,0 0 0 N 1030,7 -
17.01.2020 08:00:00 9,4 3,6 11 6 NW 1030,5 -
17.01.2020 07:00:00 8,4 2,6 13 7 NNW 1030,0 30
17.01.2020 06:00:00 8,5 2,9 9 5 NNW 1029,5 -
17.01.2020 05:00:00 9,2 3,0 15 8 NW 1029,5 -
17.01.2020 04:00:00 9,2 3,2 13 7 NNW 1029,8 -
17.01.2020 03:00:00 9,6 4,0 15 8 NNW 1030,0 -
17.01.2020 02:00:00 9,8 5,2 18 10 NW 1029,7 -
17.01.2020 01:00:00 10,0 6,8 16 9 NW 1029,7 -
17.01.2020 00:00:00 10,1 7,5 13 7 NNW 1029,9 -
16.01.2020 23:00:00 9,8 8,7 5 3 WNW 1029,8 -
16.01.2020 22:00:00 9,9 9,1 9 5 NNW 1029,3 7
16.01.2020 21:00:00 11,1 10,2 4 2 W 1029,1 -
16.01.2020 20:00:00 11,5 10,1 2 1 N 1029,0 -
16.01.2020 19:00:00 12,6 10,7 0 0 N 1028,4 50
16.01.2020 18:00:00 15,1 11,5 4 2 S 1027,7 -
16.01.2020 17:00:00 16,0 11,6 9 5 SW 1027,6 -
16.01.2020 16:00:00 16,5 10,8 9 5 SSW 1027,4 50
16.01.2020 15:00:00 16,7 10,8 11 6 SSW 1027,6 -
16.01.2020 14:00:00 16,3 11,0 11 6 SSW 1028,2 -
16.01.2020 13:00:00 16,0 9,5 9 5 S 1028,9 50
16.01.2020 12:00:00 16,1 9,3 9 5 S 1029,5 -
16.01.2020 11:00:00 14,7 1,3 5 3 NW 1029,7 -
16.01.2020 10:00:00 12,1 1,1 15 8 NW 1029,2 50
16.01.2020 09:00:00 9,7 0,9 13 7 N 1028,6 -
16.01.2020 08:00:00 9,3 0,7 16 9 NNW 1028,2 -
16.01.2020 07:00:00 9,6 0,7 18 10 NW 1028,0 50
16.01.2020 06:00:00 7,7 4,8 11 6 NNW 1027,9 -
16.01.2020 05:00:00 10,8 1,2 21 11 NNW 1028,0 -
16.01.2020 04:00:00 8,9 2,2 16 9 NNW 1028,1 -
16.01.2020 03:00:00 9,1 2,8 18 10 NNW 1028,1 -
16.01.2020 02:00:00 9,3 3,5 18 10 NNW 1028,1 -
16.01.2020 01:00:00 10,3 3,8 15 8 NNW 1028,4 -
16.01.2020 00:00:00 10,4 4,5 13 7 NNW 1028,6 -
15.01.2020 23:00:00 9,6 5,8 11 6 NW 1028,7 -
15.01.2020 22:00:00 9,7 7,5 2 1 WNW 1028,4 40
15.01.2020 21:00:00 10,2 8,6 11 6 NNW 1028,4 -
15.01.2020 20:00:00 10,7 9,0 9 5 NNW 1028,4 -
15.01.2020 19:00:00 12,5 9,9 0 0 N 1028,1 45
15.01.2020 18:00:00 15,3 10,7 4 2 SE 1027,6 -
15.01.2020 17:00:00 16,5 11,0 5 3 S 1027,2 -
15.01.2020 16:00:00 16,3 10,2 8 4 S 1026,7 40
15.01.2020 15:00:00 16,3 10,2 9 5 SSE 1026,7 -
15.01.2020 14:00:00 16,8 9,9 9 5 SSE 1027,0 -
15.01.2020 13:00:00 16,4 9,2 8 4 SSE 1027,3 45
15.01.2020 12:00:00 16,3 5,8 4 2 SW 1027,9 -
15.01.2020 11:00:00 13,6 3,5 13 7 NNW 1027,8 -
15.01.2020 10:00:00 11,9 3,6 8 4 N 1026,9 50
15.01.2020 09:00:00 9,0 3,2 11 6 NW 1026,2 -
15.01.2020 08:00:00 8,0 4,0 9 5 N 1025,4 -
15.01.2020 07:00:00 7,8 3,3 13 7 NNW 1024,8 45
15.01.2020 06:00:00 8,2 2,4 11 6 NNW 1023,9 -
15.01.2020 05:00:00 9,8 2,0 15 8 NNW 1023,7 -
15.01.2020 04:00:00 9,1 3,7 13 7 N 1023,8 -
15.01.2020 03:00:00 9,2 3,7 22 12 NNW 1023,9 -
15.01.2020 02:00:00 9,9 4,7 18 10 NNW 1023,8 -
15.01.2020 01:00:00 9,7 6,8 13 7 NNW 1024,1 -
15.01.2020 00:00:00 9,4 7,0 13 7 NNW 1024,1 -
14.01.2020 23:00:00 9,1 7,4 9 5 NW 1024,0 -
14.01.2020 22:00:00 9,7 7,8 8 4 N 1023,7 30
14.01.2020 21:00:00 12,5 9,3 11 6 WSW 1023,4 -
14.01.2020 20:00:00 12,9 9,0 16 9 WSW 1023,3 -
14.01.2020 19:00:00 14,1 9,7 26 14 SW 1022,7 40
14.01.2020 18:00:00 14,6 9,6 26 14 SW 1022,2 -
14.01.2020 17:00:00 15,1 10,1 31 17 SW 1021,9 -
14.01.2020 16:00:00 16,1 11,0 28 15 SW 1022,0 45
14.01.2020 15:00:00 15,7 8,2 28 15 SW 1022,1 -
14.01.2020 14:00:00 15,6 10,1 15 8 S 1022,7 -
14.01.2020 13:00:00 15,4 8,2 11 6 S 1023,7 50
14.01.2020 12:00:00 14,9 8,8 8 4 SSE 1024,4 -
14.01.2020 11:00:00 13,5 7,5 0 0 N 1024,9 -
14.01.2020 10:00:00 9,6 3,5 13 7 NNW 1024,5 45
14.01.2020 09:00:00 7,8 2,0 16 9 NW 1024,1 -
14.01.2020 08:00:00 6,7 4,1 11 6 N 1023,8 -
14.01.2020 07:00:00 6,4 2,4 2 1 WNW 1023,3 40
14.01.2020 06:00:00 5,7 2,8 5 3 N 1022,8 -
14.01.2020 05:00:00 8,0 2,7 15 8 NNW 1022,7 -
14.01.2020 04:00:00 7,6 5,0 15 8 NW 1022,7 -
14.01.2020 03:00:00 8,1 5,4 13 7 NNW 1023,0 -
14.01.2020 02:00:00 8,3 5,8 15 8 NW 1023,3 -
14.01.2020 01:00:00 8,4 5,9 16 9 NW 1023,7 -
14.01.2020 00:00:00 8,0 6,5 11 6 NW 1024,2 -
13.01.2020 23:00:00 8,6 6,9 4 2 N 1024,5 -
13.01.2020 22:00:00 9,4 7,4 9 5 NW 1024,6 50
13.01.2020 21:00:00 11,5 8,7 13 7 WSW 1025,0 -
13.01.2020 20:00:00 12,3 8,6 15 8 WSW 1025,1 -
13.01.2020 19:00:00 13,1 8,2 18 10 SW 1025,0 50
13.01.2020 18:00:00 13,8 8,7 15 8 SSW 1025,0 -
13.01.2020 17:00:00 15,1 9,2 15 8 SSW 1025,0 -
13.01.2020 16:00:00 15,7 9,6 15 8 SSW 1025,2 50
13.01.2020 15:00:00 15,2 9,3 15 8 SSW 1025,3 -
13.01.2020 14:00:00 15,3 9,2 9 5 S 1026,2 -
13.01.2020 13:00:00 15,5 8,9 5 3 S 1027,3 50
13.01.2020 12:00:00 14,9 8,1 5 3 S 1028,5 -
13.01.2020 11:00:00 14,1 6,8 4 2 E 1028,8 -
13.01.2020 10:00:00 10,1 3,0 9 5 NNW 1028,6 50
13.01.2020 09:00:00 7,5 2,2 11 6 N 1028,6 -
13.01.2020 08:00:00 7,5 1,0 18 10 NW 1028,2 -
13.01.2020 07:00:00 7,3 1,8 18 10 NNW 1027,9 50
13.01.2020 06:00:00 7,5 1,9 18 10 NW 1027,8 -
13.01.2020 05:00:00 7,5 2,6 15 8 NNW 1028,2 -
13.01.2020 04:00:00 7,9 3,4 16 9 NNW 1028,8 -
13.01.2020 03:00:00 7,7 4,4 16 9 NNW 1029,0 -
13.01.2020 02:00:00 8,5 5,0 22 12 NW 1029,2 -
13.01.2020 01:00:00 8,9 6,0 16 9 NNW 1030,0 -
13.01.2020 00:00:00 9,2 6,6 15 8 NNW 1030,4 -
12.01.2020 23:00:00 9,2 7,5 11 6 N 1030,6 -
12.01.2020 22:00:00 10,1 8,2 11 6 NNW 1030,2 35
12.01.2020 21:00:00 9,9 8,2 8 4 NW 1029,9 -
12.01.2020 20:00:00 11,0 8,6 5 3 NW 1029,8 -
12.01.2020 19:00:00 13,3 9,5 11 6 SW 1029,4 40
12.01.2020 18:00:00 14,1 10,1 15 8 SSW 1028,8 -
12.01.2020 17:00:00 15,3 10,5 16 9 SSW 1028,7 -
12.01.2020 16:00:00 15,9 10,3 16 9 SSW 1028,7 45
12.01.2020 15:00:00 16,0 9,9 18 10 SSW 1028,7 -
12.01.2020 14:00:00 15,8 9,0 15 8 SSW 1029,1 -
12.01.2020 13:00:00 15,3 8,2 9 5 SSW 1030,2 45
12.01.2020 12:00:00 15,2 6,9 11 6 SSW 1031,1 -
12.01.2020 11:00:00 13,1 1,5 15 8 NW 1031,5 -
12.01.2020 10:00:00 10,3 1,1 18 10 NW 1031,2 50
12.01.2020 09:00:00 7,8 1,0 22 12 NW 1030,9 -
12.01.2020 08:00:00 7,4 2,6 9 5 N 1030,7 -
12.01.2020 07:00:00 7,8 2,5 9 5 N 1030,6 50
12.01.2020 06:00:00 8,5 2,5 18 10 NNW 1030,5 -
12.01.2020 05:00:00 8,1 2,5 16 9 NNW 1030,7 -
12.01.2020 04:00:00 8,3 2,5 22 12 NNW 1031,2 -
12.01.2020 03:00:00 9,0 2,7 22 12 NNW 1031,1 -
12.01.2020 02:00:00 9,1 3,7 18 10 NW 1030,9 -
12.01.2020 01:00:00 9,5 4,2 16 9 NNW 1031,2 -
12.01.2020 00:00:00 10,2 4,9 13 7 NNW 1031,6 -
11.01.2020 23:00:00 11,3 4,7 13 7 NNW 1031,5 -

tt = Température de l'air
td = dewpoint
ff = Vitesse du vent
dd = Direction du vent
ppp = reduced air pressure
vv = visibility

stations d'obs. à proximité